• In Moldova, Republic
  • List of Countries
  • For 7 days
  • Water Temperature
  • Satellite Maps
  • Weather Map
  • Weather Widgets
  • user-avatar
    Login

    Hourly Weather Brisbane

    Today, 20 February, Monday

    Time Temperature Precipitation Wind Pressure Humidity
    00:00 +25°C° 0.7 mm 3 mps 755 mmHg 90%
    01:00 +25°C° 0.7 mm 4 mps 755 mmHg 91%
    02:00 +24°C° 0 mm 3 mps 754 mmHg 91%
    03:00 +24°C° 0 mm 3 mps 754 mmHg 90%
    04:00 +24°C° 0 mm 2 mps 754 mmHg 93%
    05:00 +24°C° 0.2 mm 2 mps 755 mmHg 91%
    06:00 +24°C° 0.2 mm 3 mps 755 mmHg 89%
    07:00 +23°C° 0.2 mm 4 mps 756 mmHg 86%
    08:00 +26°C° 0 mm 4 mps 756 mmHg 73%
    09:00 +28°C° 0 mm 4 mps 756 mmHg 59%
    10:00 +30°C° 0 mm 3 mps 757 mmHg 49%
    11:00 +31°C° 0 mm 2 mps 756 mmHg 44%
    12:00 +32°C° 0 mm 2 mps 756 mmHg 39%
    13:00 +34°C° 0 mm 2 mps 756 mmHg 33%
    14:00 +34°C° 0 mm 3 mps 756 mmHg 35%
    15:00 +34°C° 0 mm 3 mps 755 mmHg 37%
    16:00 +33°C° 0 mm 4 mps 755 mmHg 39%
    17:00 +30°C° 0 mm 4 mps 756 mmHg 50%
    18:00 +28°C° 0 mm 4 mps 756 mmHg 62%
    19:00 +26°C° 0 mm 4 mps 757 mmHg 73%
    20:00 +25°C° 0 mm 3 mps 758 mmHg 78%
    21:00 +24°C° 0 mm 3 mps 758 mmHg 83%
    22:00 +24°C° 0 mm 2 mps 759 mmHg 89%
    23:00 +24°C° 0 mm 2 mps 759 mmHg 90%

    Tomorrow, 21 February, Tuesday

    Time Temperature Precipitation Wind Pressure Humidity
    00:00 +23°C° 0 mm 2 mps 759 mmHg 91%
    01:00 +23°C° 0 mm 2 mps 759 mmHg 91%
    02:00 +22°C° 0 mm 3 mps 759 mmHg 91%
    03:00 +22°C° 0 mm 3 mps 759 mmHg 91%
    04:00 +22°C° 0 mm 3 mps 759 mmHg 90%
    05:00 +23°C° 0 mm 4 mps 759 mmHg 87%
    06:00 +25°C° 0 mm 4 mps 760 mmHg 84%
    07:00 +25°C° 0 mm 4 mps 760 mmHg 80%
    08:00 +27°C° 0 mm 5 mps 760 mmHg 73%
    09:00 +29°C° 0 mm 5 mps 761 mmHg 66%
    10:00 +30°C° 0 mm 5 mps 761 mmHg 59%
    11:00 +32°C° 0 mm 6 mps 760 mmHg 56%
    12:00 +33°C° 0 mm 6 mps 760 mmHg 53%
    13:00 +33°C° 0 mm 7 mps 760 mmHg 50%
    14:00 +33°C° 0 mm 7 mps 760 mmHg 52%
    15:00 +32°C° 0 mm 7 mps 759 mmHg 54%
    16:00 +30°C° 0 mm 7 mps 759 mmHg 57%
    17:00 +29°C° 0 mm 7 mps 760 mmHg 62%
    18:00 +27°C° 0 mm 6 mps 760 mmHg 67%
    19:00 +26°C° 0 mm 5 mps 761 mmHg 72%
    20:00 +25°C° 0 mm 5 mps 761 mmHg 75%
    21:00 +25°C° 0 mm 5 mps 762 mmHg 78%
    22:00 +23°C° 0 mm 5 mps 762 mmHg 80%
    23:00 +23°C° 0 mm 5 mps 762 mmHg 82%

    Day after tomorrow, 22 February, Wednesday

    Time Temperature Precipitation Wind Pressure Humidity
    00:00 +22°C° 0 mm 5 mps 762 mmHg 84%
    01:00 +22°C° 0 mm 5 mps 761 mmHg 86%
    02:00 +22°C° 0 mm 5 mps 761 mmHg 87%
    03:00 +22°C° 0 mm 5 mps 761 mmHg 87%
    04:00 +21°C° 0 mm 5 mps 761 mmHg 87%
    05:00 +22°C° 0 mm 5 mps 761 mmHg 85%
    06:00 +23°C° 0 mm 5 mps 761 mmHg 82%
    07:00 +23°C° 0 mm 6 mps 762 mmHg 79%
    08:00 +26°C° 0 mm 6 mps 762 mmHg 72%
    09:00 +28°C° 0 mm 6 mps 762 mmHg 65%
    10:00 +30°C° 0 mm 7 mps 762 mmHg 58%
    11:00 +30°C° 0 mm 7 mps 761 mmHg 55%
    12:00 +32°C° 0 mm 7 mps 761 mmHg 53%
    13:00 +33°C° 0 mm 7 mps 760 mmHg 50%
    14:00 +32°C° 0 mm 7 mps 760 mmHg 52%
    15:00 +32°C° 0 mm 7 mps 760 mmHg 53%
    16:00 +30°C° 0 mm 7 mps 760 mmHg 55%
    17:00 +28°C° 0 mm 6 mps 760 mmHg 62%
    18:00 +27°C° 0 mm 6 mps 760 mmHg 69%
    19:00 +25°C° 0 mm 5 mps 761 mmHg 77%
    20:00 +23°C° 0 mm 5 mps 761 mmHg 81%
    21:00 +22°C° 0 mm 5 mps 762 mmHg 86%
    22:00 +22°C° 0 mm 5 mps 762 mmHg 90%
    23:00 +21°C° 0 mm 4 mps 762 mmHg 91%

    23 February, Thursday

    Time Temperature Precipitation Wind Pressure Humidity
    00:00 +21°C° 0 mm 4 mps 761 mmHg 93%
    01:00 +20°C° 0 mm 4 mps 761 mmHg 94%
    02:00 +20°C° 0 mm 4 mps 761 mmHg 94%
    03:00 +20°C° 0 mm 4 mps 761 mmHg 94%
    04:00 +20°C° 0 mm 4 mps 761 mmHg 94%
    05:00 +20°C° 0 mm 4 mps 761 mmHg 90%
    06:00 +21°C° 0 mm 5 mps 762 mmHg 87%
    07:00 +22°C° 0 mm 5 mps 762 mmHg 83%
    08:00 +25°C° 0 mm 5 mps 762 mmHg 72%
    09:00 +28°C° 0 mm 5 mps 762 mmHg 62%
    10:00 +30°C° 0 mm 5 mps 762 mmHg 51%
    11:00 +32°C° 0 mm 5 mps 762 mmHg 48%
    12:00 +33°C° 0 mm 5 mps 761 mmHg 45%
    13:00 +34°C° 0 mm 6 mps 761 mmHg 42%
    14:00 +34°C° 0 mm 6 mps 760 mmHg 45%
    15:00 +33°C° 0 mm 6 mps 760 mmHg 48%
    16:00 +33°C° 0 mm 7 mps 760 mmHg 51%
    17:00 +30°C° 0 mm 6 mps 761 mmHg 60%
    18:00 +28°C° 0 mm 6 mps 761 mmHg 70%
    19:00 +25°C° 0 mm 5 mps 762 mmHg 79%
    20:00 +25°C° 0 mm 5 mps 762 mmHg 83%
    21:00 +23°C° 0 mm 4 mps 763 mmHg 87%
    22:00 +22°C° 0 mm 4 mps 763 mmHg 91%
    23:00 +22°C° 0.1 mm 4 mps 763 mmHg 91%

    24 February, Friday

    Time Temperature Precipitation Wind Pressure Humidity
    00:00 +22°C° 0.1 mm 4 mps 762 mmHg 90%
    01:00 +22°C° 0.1 mm 4 mps 762 mmHg 90%
    02:00 +22°C° 0.1 mm 4 mps 762 mmHg 89%
    03:00 +21°C° 0.1 mm 4 mps 762 mmHg 89%
    04:00 +21°C° 0.1 mm 4 mps 762 mmHg 88%
    05:00 +22°C° 0.1 mm 5 mps 762 mmHg 84%
    06:00 +22°C° 0.1 mm 5 mps 763 mmHg 81%
    07:00 +23°C° 0.1 mm 5 mps 763 mmHg 77%
    08:00 +26°C° 0.1 mm 5 mps 763 mmHg 70%
    09:00 +28°C° 0.1 mm 6 mps 763 mmHg 64%
    10:00 +29°C° 0.1 mm 6 mps 763 mmHg 57%
    11:00 +30°C° 0 mm 6 mps 763 mmHg 54%
    12:00 +32°C° 0 mm 6 mps 762 mmHg 50%
    13:00 +33°C° 0 mm 7 mps 762 mmHg 47%
    14:00 +33°C° 0 mm 7 mps 761 mmHg 47%
    15:00 +32°C° 0 mm 7 mps 761 mmHg 48%
    16:00 +32°C° 0 mm 7 mps 761 mmHg 48%
    17:00 +29°C° 0 mm 6 mps 761 mmHg 57%
    18:00 +27°C° 0 mm 6 mps 762 mmHg 66%
    19:00 +25°C° 0 mm 5 mps 762 mmHg 75%
    20:00 +25°C° 0 mm 4 mps 762 mmHg 80%
    21:00 +23°C° 0 mm 4 mps 762 mmHg 85%
    22:00 +22°C° 0 mm 4 mps 763 mmHg 90%
    23:00 +22°C° 0 mm 4 mps 762 mmHg 90%

    25 February, Saturday

    Time Temperature Precipitation Wind Pressure Humidity
    00:00 +22°C° 0 mm 4 mps 762 mmHg 90%
    01:00 +22°C° 0 mm 4 mps 761 mmHg 90%
    02:00 +21°C° 0 mm 4 mps 761 mmHg 91%
    03:00 +21°C° 0 mm 4 mps 761 mmHg 91%
    04:00 +21°C° 0 mm 4 mps 761 mmHg 92%
    05:00 +22°C° 0 mm 4 mps 761 mmHg 87%
    06:00 +23°C° 0 mm 4 mps 761 mmHg 82%
    07:00 +25°C° 0 mm 4 mps 762 mmHg 77%
    08:00 +26°C° 0 mm 4 mps 762 mmHg 68%
    09:00 +28°C° 0 mm 5 mps 761 mmHg 59%
    10:00 +30°C° 0 mm 5 mps 761 mmHg 50%
    11:00 +32°C° 0 mm 5 mps 761 mmHg 47%
    12:00 +33°C° 0 mm 5 mps 760 mmHg 44%
    13:00 +34°C° 0 mm 5 mps 760 mmHg 41%
    14:00 +33°C° 0 mm 5 mps 759 mmHg 43%
    15:00 +33°C° 0 mm 5 mps 759 mmHg 46%
    16:00 +32°C° 0 mm 6 mps 759 mmHg 48%
    17:00 +29°C° 0 mm 5 mps 759 mmHg 58%
    18:00 +27°C° 0 mm 5 mps 760 mmHg 68%
    19:00 +25°C° 0 mm 4 mps 760 mmHg 77%
    20:00 +23°C° 0 mm 4 mps 761 mmHg 82%
    21:00 +22°C° 0 mm 4 mps 761 mmHg 86%
    22:00 +22°C° 0 mm 3 mps 761 mmHg 90%
    23:00 +22°C° 0 mm 4 mps 761 mmHg 89%
    Show more